STARLINK-1393 (45678 NORAD) Tracking and Keplerian Element Data

This shows tracking and keplerian element data for the satellite.

Feedback or suggestion? Click here.




ElementValue
Catalog45678
NameSTARLINK-1393
Epoch Orbit1026
Epoch Day215.91667824
Epoch Year2020
RAAN237.194
Inclination52.9971
Eccentricity0.0001262
Argument of Perigee61.2333
Mean Anonmoly313.9859
Mean Motion15.3321077
Decay Rate-0.01074065
L11 45678U 20035X 20215.91667824 -.01074065 00000-0 -35990-1 0 9995
L22 45678 52.9971 237.1940 0001262 61.2333 313.9859 15.33210770 10266

Live tracking and technical data element details for STARLINK-1393 (NORAD 45678). STARLINK-1393 can be tracked NOW for your location showing map with azimuth and elevation plus other details from your city location.

Track the satellite on the map from your city or location and see movement details for azimuth, elevation, latitude, longitude, range, height, and movement on the map or in text.







IsCatalogInMostPopularTable: catalog: 45678, numindb: 9
Update: records affected: 1



GetName: 45678 STARLINK-1393

Hit Count: updated at: Mon, 03 Aug 2020 17:23:56 GMT